| time (UTC) | temp C | wind direction | speed KPH | gust KPH | rain 1hr cm | rain 24hr cm | rain mn cm | humidity % | barometer mb |
| 20260505014703 | 19 | 70 | 6.4 | 12.9 | 0.05 | 1.30 | 0.99 | 95 | 1011.9 |
| 20260505012703 | 19 | 60 | 6.4 | 12.9 | 0.15 | 1.30 | 0.99 | 96 | 1012.1 |
| 20260505011703 | 19 | 60 | 6.4 | 12.9 | 0.15 | 1.30 | 0.99 | 96 | 1012.2 |
| 20260505010704 | 19 | 60 | 4.8 | 11.3 | 0.20 | 1.30 | 0.99 | 96 | 1012.1 |
| 20260505005704 | 19 | 90 | 3.2 | 11.3 | 0.20 | 1.30 | 0.99 | 96 | 1012.1 |
| 20260505004703 | 19 | 140 | 1.6 | 11.3 | 0.15 | 1.24 | 0.94 | 96 | 1012.0 |
| 20260505003708 | 19 | 120 | 3.2 | 11.3 | 0.20 | 0.94 | 0.66 | 96 | 1011.9 |
| 20260505002704 | 18 | 120 | 4.8 | 11.3 | 0.15 | 1.14 | 0.84 | 96 | 1011.9 |
| 20260505001705 | 18 | 100 | 1.6 | 11.3 | 0.20 | 1.14 | 0.84 | 96 | 1011.9 |
| 20260505000704 | 18 | 100 | 3.2 | 11.3 | 0.15 | 1.09 | 0.79 | 95 | 1011.8 |
| 20260504235704 | 18 | 60 | 3.2 | 11.3 | 0.20 | 1.09 | 0.79 | 96 | 1011.8 |
| 20260504234703 | 18 | 70 | 3.2 | 11.3 | 0.25 | 1.09 | 0.79 | 96 | 1011.7 |
| 20260504233703 | 18 | 100 | 4.8 | 11.3 | 0.25 | 1.04 | 0.76 | 96 | 1011.5 |
| 20260504232704 | 18 | 90 | 1.6 | 11.3 | 0.20 | 0.99 | 0.71 | 96 | 1011.5 |
| 20260504231704 | 18 | 50 | 4.8 | 11.3 | 0.15 | 0.94 | 0.66 | 96 | 1011.5 |
| 20260504230704 | 18 | 80 | 3.2 | 9.7 | 0.20 | 0.94 | 0.66 | 95 | 1011.4 |
| 20260504225704 | 18 | 80 | 3.2 | 9.7 | 0.15 | 0.89 | 0.61 | 96 | 1011.5 |
| 20260504224703 | 18 | 110 | 1.6 | 9.7 | 0.25 | 0.84 | 0.56 | 96 | 1011.4 |
| 20260504223704 | 18 | 130 | 3.2 | 9.7 | 0.25 | 0.79 | 0.51 | 95 | 1011.3 |
| 20260504222705 | 18 | 120 | 4.8 | 9.7 | 0.30 | 0.79 | 0.51 | 95 | 1011.2 |
| 20260504221704 | 18 | 120 | 3.2 | 9.7 | 0.36 | 0.79 | 0.51 | 95 | 1011.2 |
| 20260504220704 | 18 | 70 | 4.8 | 8.0 | 0.30 | 0.76 | 0.46 | 95 | 1011.1 |
| 20260504215703 | 18 | 50 | 3.2 | 8.0 | 0.30 | 0.76 | 0.46 | 95 | 1011.1 |
| 20260504214704 | 18 | 90 | 1.6 | 8.0 | 0.15 | 0.66 | 0.30 | 95 | 1010.9 |
| 20260504213703 | 18 | 90 | 1.6 | 8.0 | 0.10 | 0.61 | 0.25 | 94 | 1010.8 |
| 20260504212703 | 18 | 90 | 1.6 | 8.0 | 0.05 | 0.56 | 0.20 | 94 | 1010.7 |
| 20260504211704 | 18 | 90 | 3.2 | 8.0 | 0.05 | 0.51 | 0.15 | 93 | 1010.6 |
| 20260504210703 | 18 | 120 | 1.6 | 11.3 | 0.10 | 0.51 | 0.15 | 92 | 1010.5 |
| 20260504205703 | 18 | 110 | 1.6 | 11.3 | 0.10 | 0.51 | 0.15 | 93 | 1010.5 |
| 20260504204703 | 18 | 130 | 1.6 | 11.3 | 0.10 | 0.51 | 0.15 | 92 | 1010.5 |
| 20260504203704 | 18 | 120 | 1.6 | 11.3 | 0.15 | 0.51 | 0.15 | 93 | 1010.4 |
| 20260504202703 | 18 | 120 | 1.6 | 11.3 | 0.15 | 0.51 | 0.15 | 91 | 1010.4 |
| 20260504201703 | 18 | 130 | 3.2 | 11.3 | 0.10 | 0.46 | 0.10 | 90 | 1010.2 |
| 20260504200704 | 18 | 110 | 3.2 | 19.3 | 0.05 | 0.41 | 0.05 | 89 | 1010.1 |
| 20260504195703 | 18 | 130 | 3.2 | 19.3 | 0.05 | 0.41 | 0.05 | 88 | 1010.1 |
| 20260504194703 | 18 | 120 | 3.2 | 19.3 | 0.05 | 0.41 | 0.05 | 86 | 1010.0 |
| 20260504193704 | 18 | 100 | 6.4 | 19.3 | 0.00 | 0.36 | 0.00 | 86 | 1009.8 |
| 20260504192704 | 18 | 130 | 3.2 | 19.3 | 0.00 | 0.36 | 0.00 | 86 | 1009.8 |
| 20260504191703 | 18 | 70 | 3.2 | 19.3 | 0.00 | 0.36 | 0.00 | 86 | 1009.9 |
| 20260504190703 | 18 | 110 | 4.8 | 19.3 | 0.00 | 0.36 | 0.00 | 86 | 1009.9 |
| 20260504185704 | 18 | 110 | 6.4 | 19.3 | 0.00 | 0.36 | 0.00 | 86 | 1009.9 |
| 20260504184703 | 18 | 100 | 3.2 | 19.3 | 0.00 | 0.36 | 0.00 | 86 | 1010.0 |
| 20260504183703 | 18 | 120 | 4.8 | 19.3 | 0.00 | 0.36 | 0.00 | 85 | 1010.1 |
| 20260504182704 | 18 | 110 | 3.2 | 19.3 | 0.00 | 0.36 | 0.00 | 85 | 1010.2 |
| 20260504181703 | 18 | 130 | 6.4 | 19.3 | 0.00 | 0.36 | 0.00 | 85 | 1010.2 |
| 20260504180703 | 18 | 110 | 6.4 | 19.3 | 0.00 | 0.36 | 0.00 | 84 | 1010.3 |
| 20260504175703 | 18 | 130 | 4.8 | 19.3 | 0.00 | 0.36 | 0.00 | 83 | 1010.4 |
| 20260504174704 | 18 | 110 | 6.4 | 19.3 | 0.00 | 0.36 | 0.00 | 84 | 1010.4 |
| 20260504173706 | 18 | 120 | 6.4 | 19.3 | 0.00 | 0.36 | 0.00 | 83 | 1010.6 |
| 20260504172703 | 18 | 130 | 6.4 | 19.3 | 0.00 | 0.36 | 0.00 | 83 | 1010.8 |
| 20260504171705 | 18 | 130 | 6.4 | 19.3 | 0.00 | 0.36 | 0.00 | 84 | 1010.9 |
| 20260504170703 | 18 | 100 | 6.4 | 22.5 | 0.00 | 0.36 | 0.00 | 83 | 1011.0 |
| 20260504150704 | 17 | 120 | 3.2 | 22.5 | 0.00 | 0.36 | 0.36 | 83 | 1012.1 |
| 20260504140703 | 17 | 60 | 6.4 | 27.4 | 0.00 | 0.36 | 0.36 | 83 | 1012.6 |
| 20260504130703 | 17 | 70 | 9.7 | 22.5 | 0.05 | 0.36 | 0.36 | 84 | 1012.8 |
| 20260504110703 | 17 | 50 | 6.4 | 35.4 | 0.20 | 0.25 | 0.25 | 82 | 1012.9 |
| 20260504081704 | 22 | 50 | 14.5 | 45.1 | 0.00 | 0.05 | 0.05 | 65 | 1010.8 |
| 20260504080703 | 22 | 50 | 14.5 | 41.8 | 0.00 | 0.05 | 0.05 | 64 | 1010.6 |
| 20260504050704 | 25 | 50 | 16.1 | 53.1 | 0.00 | 0.05 | 0.05 | 50 | 1011.7 |
| 20260504045704 | 25 | 40 | 20.9 | 53.1 | 0.00 | 0.05 | 0.05 | 49 | 1012.0 |
| 20260504044704 | 25 | 50 | 14.5 | 53.1 | 0.00 | 0.05 | 0.05 | 51 | 1011.8 |
| 20260504043704 | 25 | 50 | 14.5 | 53.1 | 0.00 | 0.05 | 0.05 | 53 | 1012.0 |
| 20260504042704 | 25 | 60 | 14.5 | 53.1 | 0.00 | 0.05 | 0.05 | 52 | 1012.1 |
| 20260504041703 | 25 | 40 | 17.7 | 53.1 | 0.00 | 0.05 | 0.05 | 56 | 1012.4 |
| 20260504040703 | 24 | 40 | 19.3 | 41.8 | 0.00 | 0.05 | 0.05 | 53 | 1012.3 |
| 20260504035703 | 24 | 50 | 16.1 | 41.8 | 0.00 | 0.05 | 0.05 | 54 | 1012.7 |
| 20260504034704 | 24 | 40 | 17.7 | 41.8 | 0.00 | 0.05 | 0.05 | 55 | 1013.0 |
| 20260504033703 | 23 | 40 | 14.5 | 41.8 | 0.00 | 0.05 | 0.05 | 57 | 1012.7 |
| 20260504032704 | 23 | 40 | 16.1 | 41.8 | 0.00 | 0.05 | 0.05 | 54 | 1012.9 |
| 20260504031704 | 23 | 40 | 16.1 | 41.8 | 0.00 | 0.05 | 0.05 | 54 | 1012.8 |
| 20260504030703 | 22 | 50 | 14.5 | 33.8 | 0.00 | 0.05 | 0.05 | 56 | 1013.2 |
| 20260504025703 | 23 | 40 | 14.5 | 33.8 | 0.00 | 0.05 | 0.05 | 54 | 1013.2 |
| 20260504024703 | 23 | 50 | 17.7 | 33.8 | 0.00 | 0.05 | 0.05 | 54 | 1013.1 |
| 20260504023704 | 23 | 50 | 9.7 | 33.8 | 0.00 | 0.05 | 0.05 | 53 | 1013.3 |
| 20260504022704 | 23 | 60 | 14.5 | 33.8 | 0.00 | 0.05 | 0.05 | 57 | 1013.3 |
| 20260504021703 | 22 | 70 | 9.7 | 33.8 | 0.00 | 0.05 | 0.05 | 60 | 1013.6 |
| 20260504020704 | 21 | 60 | 11.3 | 45.1 | 0.00 | 0.05 | 0.05 | 67 | 1013.7 |
| 20260504015703 | 21 | 60 | 14.5 | 45.1 | 0.00 | 0.05 | 0.05 | 67 | 1013.7 |